Theta_e
320 320 321 321 320 320 320 319 324 326 324 325 323 325 324 322 325 325 326 324 325 328 327 325 327 330 330 331 333 334 334 335 336 337 342 338 334 333 328 325 320 317 318 318 318 317 316 314 311 312 313 312 315 319 322 326 329 331 332 332 333 333 333 332 330 326 321 321 320 317 314 312 312 312 313 314 313 312 314 313 312 312 312 311 313 317 318 320 322 321 321 318 312 311 312 312 312
320 320 321 319 321 319 320 321 327 336 333 326 324 324 321 321 323 328 330 326 329 330 329 328 329 331 331 331 331 333 335 334 333 335 337 334 334 332 328 325 320 318 318 318 318 318 318 315 312 313 315 317 320 322 325 328 330 331 332 332 333 332 332 331 328 323 319 318 316 314 316 318 318 317 315 314 314 312 313 313 312 312 312 312 312 316 318 319 321 321 320 316 311 311 311 313 313
319 320 319 320 321 318 321 321 325 333 329 326 330 327 321 323 328 331 328 325 330 330 329 329 330 330 330 333 332 334 336 334 333 335 335 334 335 332 329 326 321 319 317 317 317 317 318 317 315 315 317 320 321 323 329 330 331 331 331 331 332 331 331 329 325 321 318 316 313 311 315 319 319 319 315 313 314 312 312 312 312 312 311 312 311 315 317 317 320 321 321 318 314 313 312 313 315
319 319 318 320 319 320 328 326 330 332 323 325 329 326 325 329 330 326 323 327 330 327 328 330 331 331 331 337 334 333 335 334 334 335 335 334 334 331 329 327 322 319 317 316 315 315 315 315 316 316 318 319 320 325 331 331 330 331 331 331 331 331 328 324 320 319 318 313 310 310 313 318 319 315 312 312 313 311 312 312 311 312 311 312 311 312 314 314 318 321 321 319 317 314 312 314 319
319 320 318 320 319 321 329 325 328 328 323 327 322 323 330 332 327 322 324 331 328 324 328 331 333 332 332 336 333 333 335 334 334 334 335 335 334 330 329 328 322 319 318 316 314 313 312 313 313 315 318 319 319 325 329 329 330 330 331 331 330 328 324 319 317 319 317 310 313 316 315 316 316 311 310 311 312 311 311 311 310 311 311 311 311 311 312 314 317 319 320 319 317 314 311 313 318
319 320 318 318 319 318 324 321 324 327 327 329 322 326 330 326 323 322 326 329 325 323 328 330 331 331 333 334 333 334 333 334 334 334 335 335 332 329 330 327 321 319 318 316 314 312 311 311 312 316 320 320 320 324 327 328 330 330 331 330 329 327 321 317 314 315 314 312 318 322 320 317 315 312 311 310 311 311 310 310 310 310 311 311 311 311 312 314 316 317 319 318 315 313 311 311 313
319 321 318 319 319 317 326 324 328 334 324 319 322 330 327 320 321 323 323 324 323 323 328 330 329 332 334 334 334 334 333 334 334 334 335 335 332 329 330 326 321 320 318 316 314 312 311 311 312 317 320 322 322 324 328 328 330 331 330 329 327 323 319 314 312 312 312 315 320 323 324 322 320 316 313 311 310 311 311 311 310 311 311 312 313 312 311 312 315 316 318 319 315 312 311 311 311
319 320 318 322 323 322 330 325 328 333 318 311 315 323 322 320 321 321 320 321 323 324 329 330 327 333 334 331 334 334 333 334 334 335 335 334 331 329 330 326 321 320 319 316 314 312 310 310 312 316 317 320 325 327 328 327 328 330 328 326 324 320 316 312 312 314 314 318 321 324 323 318 318 315 312 311 311 312 313 312 310 310 310 311 312 312 311 310 314 315 318 319 315 312 311 311 311
318 320 318 322 326 326 332 326 322 323 319 315 314 318 320 320 321 319 319 320 322 325 330 328 323 328 333 331 334 334 333 335 335 335 335 335 332 330 330 326 322 321 320 317 314 312 310 310 310 312 313 317 325 328 326 325 327 327 325 323 321 317 313 311 314 315 316 319 320 324 323 315 315 313 309 310 310 311 310 310 309 309 309 310 310 310 310 310 312 314 317 318 313 311 311 312 312
318 320 317 322 329 323 325 328 325 320 318 317 315 318 321 320 320 318 319 320 322 327 328 326 322 327 332 332 334 334 334 335 335 336 335 335 333 330 330 327 325 324 321 318 315 313 311 310 309 310 311 313 321 323 323 327 327 323 320 318 317 314 312 311 312 313 314 318 319 322 323 318 317 313 309 309 308 309 308 309 309 309 310 311 311 311 311 311 311 312 314 313 311 312 312 312 313
319 317 318 325 331 323 322 330 332 328 320 316 316 319 321 321 319 316 318 321 323 326 325 325 327 329 330 331 334 334 334 335 335 336 335 336 333 331 330 329 329 327 323 320 317 314 311 310 310 310 311 312 315 318 322 327 326 320 317 314 313 312 311 310 309 310 310 316 318 317 321 322 321 315 313 311 308 309 308 309 309 310 312 312 313 313 312 312 312 312 312 312 312 313 313 313 313
319 319 329 333 328 325 325 328 331 333 327 321 320 319 321 320 318 317 318 321 322 323 324 325 328 328 329 331 334 334 334 335 335 336 336 336 334 331 331 331 331 330 325 322 319 315 312 310 310 310 310 311 311 315 320 323 322 318 315 312 311 310 310 309 309 310 308 312 315 313 316 320 318 315 314 311 308 308 308 309 310 312 313 313 313 313 313 313 313 312 312 312 313 313 313 313 312
319 321 332 327 322 325 323 323 325 327 327 324 320 319 321 319 317 318 318 320 322 324 325 325 324 325 330 330 332 335 334 334 335 336 336 335 334 332 331 331 331 331 327 323 320 316 313 311 310 310 310 310 310 313 317 319 319 317 315 312 311 310 309 309 308 309 309 310 312 310 312 314 313 312 313 310 308 308 308 310 312 313 314 314 314 314 314 313 313 313 312 312 312 312 312 312 312
319 319 328 322 319 326 323 322 321 322 327 323 317 318 321 319 317 317 319 323 323 323 323 324 323 324 330 330 331 334 334 334 335 336 335 335 334 332 331 331 331 331 329 324 321 317 314 311 310 311 310 310 311 312 313 315 315 314 313 311 310 310 309 309 309 309 309 309 310 309 309 309 310 310 311 309 308 309 309 312 313 314 314 315 315 315 315 315 314 313 313 313 313 313 313 313 313
318 317 328 328 321 323 322 320 320 323 328 323 316 317 320 318 317 316 318 324 324 320 322 325 325 324 326 329 330 331 334 334 335 336 336 335 334 333 332 331 331 330 331 326 321 318 315 313 311 310 310 310 310 311 311 311 311 311 310 310 309 310 310 309 309 309 309 309 309 309 308 308 308 308 309 308 308 309 311 313 314 315 315 316 317 317 316 316 316 315 315 315 315 315 315 315 315
319 317 326 329 321 321 320 317 319 324 324 318 314 317 319 318 316 317 317 319 321 318 322 326 325 324 322 322 321 326 333 334 335 336 335 335 334 334 332 331 330 330 331 329 323 319 317 315 313 311 310 310 310 310 310 310 309 309 309 310 309 309 309 309 309 309 309 309 309 308 308 308 308 308 308 308 309 310 312 313 314 315 316 317 317 317 317 317 317 317 316 316 316 317 317 318 318
318 321 329 327 322 323 322 318 319 324 324 315 312 316 318 316 315 317 317 317 319 318 322 326 324 323 323 321 319 325 333 334 335 336 335 335 334 333 332 330 329 329 330 330 325 321 319 317 315 313 312 311 310 310 309 309 309 309 309 309 310 309 309 309 309 309 309 309 309 308 308 308 308 308 308 308 310 311 313 314 315 316 316 317 317 317 317 317 317 317 317 317 317 317 318 318 318
320 328 330 325 326 327 326 323 317 318 321 314 312 315 317 317 315 316 318 318 320 321 324 327 326 323 324 324 321 326 333 334 334 335 334 334 334 332 331 330 329 328 329 330 328 323 320 319 318 317 315 314 312 311 310 310 310 309 310 310 310 310 309 310 309 309 309 309 309 308 308 308 307 307 308 309 310 311 313 315 315 316 316 317 317 317 317 317 317 317 318 318 318 318 318 319 319
322 325 324 327 331 324 320 319 314 314 317 314 313 315 315 316 315 317 320 322 324 327 327 326 327 325 325 326 322 326 333 334 334 334 334 333 333 332 330 330 329 329 328 329 330 326 322 320 320 319 318 317 316 314 313 311 310 310 310 310 310 310 310 310 310 309 309 309 309 308 308 308 308 307 308 309 310 312 314 315 316 316 316 317 317 317 317 317 318 318 318 318 319 319 319 320 320
318 318 323 331 326 318 316 316 315 315 315 314 313 314 314 315 316 318 319 323 326 328 327 325 327 326 325 327 323 326 332 334 333 333 333 333 332 331 330 330 329 329 328 328 330 329 326 322 321 321 320 320 319 317 315 314 313 311 310 310 310 310 310 310 310 310 309 310 309 309 308 308 308 307 309 310 311 313 315 315 316 316 316 317 317 317 317 318 318 318 319 319 320 320 320 321 321
315 316 325 324 316 316 319 316 316 316 314 314 314 314 314 313 316 317 318 323 326 324 323 322 322 322 324 326 324 325 331 333 333 333 333 333 332 331 330 330 329 329 328 328 329 330 329 325 322 322 321 322 321 319 317 316 315 313 312 311 310 310 310 310 310 310 310 310 310 309 309 308 308 308 309 311 312 314 315 315 315 316 316 317 317 317 318 318 319 319 319 320 320 321 321 322 322
314 316 319 316 313 316 317 314 315 314 313 314 313 314 315 314 315 317 318 323 324 320 319 318 317 318 320 323 323 324 329 333 333 332 332 332 331 330 330 329 329 330 330 330 329 330 331 328 324 323 323 323 323 322 319 318 317 317 315 313 311 310 310 310 311 311 311 311 311 311 310 309 309 310 311 312 313 314 315 315 316 316 317 317 317 318 318 318 319 320 320 321 321 322 322 323 323
314 316 315 314 314 314 315 314 314 313 313 313 312 314 315 314 315 316 318 319 318 317 317 318 317 318 319 320 322 322 324 330 332 331 331 330 330 329 329 329 329 330 330 330 329 330 331 330 327 326 325 324 324 324 321 319 319 319 318 316 314 312 311 311 312 312 312 312 312 312 311 311 311 312 312 313 314 315 316 316 316 317 317 317 318 318 319 319 320 320 321 322 322 323 324 324 325
313 316 314 313 314 312 315 314 313 314 313 314 314 314 313 314 315 315 316 318 317 317 316 317 317 319 321 321 322 319 318 324 329 329 329 329 328 327 328 329 330 330 330 330 330 330 331 330 329 328 327 325 325 325 323 321 320 319 319 319 317 314 313 313 313 313 314 314 314 313 313 312 313 314 314 315 315 316 316 317 317 318 318 318 319 319 320 321 322 322 323 324 324 325 325 325 324
313 315 312 310 312 313 313 313 313 313 313 314 313 313 313 313 314 313 315 318 317 317 315 315 317 318 321 322 322 320 317 320 326 328 328 328 327 327 328 329 330 330 330 330 330 330 330 330 329 329 328 326 326 326 325 323 321 320 319 320 320 318 316 314 315 316 317 317 316 316 315 314 315 316 316 316 317 317 318 318 319 319 320 320 321 322 322 323 323 324 324 325 325 325 325 324 323
312 313 311 309 310 311 312 313 313 313 313 313 313 313 312 312 312 314 315 316 317 317 315 315 316 318 320 323 322 321 317 319 324 327 327 327 327 328 327 328 328 328 328 328 329 330 330 330 329 328 327 327 327 326 326 325 323 321 319 320 321 321 319 317 316 317 318 319 319 319 318 318 318 318 319 319 319 320 321 321 322 322 322 323 323 323 323 324 324 325 325 325 326 326 325 324 323
311 311 311 310 311 311 312 313 313 313 312 312 314 313 311 311 312 316 316 315 316 316 315 315 316 317 319 322 322 320 318 318 322 325 326 327 327 327 327 327 327 327 327 327 329 330 330 330 329 327 327 327 326 326 325 326 325 322 320 320 321 321 321 319 317 317 319 320 320 321 321 321 321 321 321 322 322 322 323 323 323 323 324 324 324 324 324 324 325 325 325 325 326 326 325 323 323
312 311 311 311 311 312 312 312 312 313 313 312 313 312 310 311 312 315 315 314 315 315 315 315 316 317 318 320 322 321 320 319 322 325 325 325 325 325 326 327 326 327 327 327 328 330 330 329 328 328 327 327 326 325 325 325 324 324 322 321 321 322 322 321 319 319 320 321 322 322 322 322 322 322 323 323 323 323 323 324 324 324 324 324 324 324 325 324 325 325 325 325 325 325 323 322 321
314 311 312 313 311 313 313 311 312 312 313 312 312 313 313 313 313 314 314 314 315 314 315 316 316 317 318 321 321 320 320 320 323 324 323 323 323 323 324 325 325 326 326 327 329 330 330 329 328 328 328 328 326 325 325 324 324 324 323 322 322 322 322 321 321 321 321 322 323 323 323 323 323 323 323 323 324 324 324 324 324 324 324 324 324 324 324 325 325 325 325 325 324 323 321 320 319
314 311 310 312 313 316 313 310 311 312 312 312 312 316 318 315 313 313 314 314 314 314 315 316 317 318 319 320 321 321 320 320 321 322 322 323 323 323 323 324 325 325 326 327 328 329 329 329 328 329 328 328 327 326 325 325 325 325 324 323 323 323 322 322 321 321 322 322 323 323 323 324 324 324 324 324 324 324 324 324 324 324 324 324 325 325 325 325 324 324 324 323 322 321 320 320 319
311 311 311 312 314 320 317 309 310 313 312 311 312 315 319 317 313 312 313 313 314 315 316 316 317 318 319 321 321 321 320 320 320 321 323 323 323 323 324 324 325 325 326 326 326 326 327 328 328 328 328 327 327 327 326 325 324 324 324 324 324 324 324 323 323 322 322 323 324 324 324 324 324 324 324 325 324 325 325 325 325 324 324 324 324 323 323 323 323 322 322 321 320 320 320 319 320
311 312 317 316 313 319 320 310 309 314 312 310 312 315 317 316 313 312 312 313 314 315 316 317 317 318 319 320 321 320 320 320 320 321 322 323 323 323 323 324 325 325 325 326 326 325 325 326 326 325 325 325 326 326 325 325 324 324 324 324 324 325 325 324 324 324 324 324 324 324 324 324 325 325 325 324 324 325 325 324 324 324 324 324 324 323 322 322 322 321 321 320 319 319 319 319 320
317 312 317 320 314 315 318 312 309 311 312 311 312 315 318 315 310 310 311 312 314 317 318 318 317 318 319 320 320 320 320 320 320 320 321 321 322 322 322 323 324 325 325 325 325 325 324 324 324 324 323 323 324 325 325 324 324 324 324 324 326 326 325 324 324 324 324 324 323 323 324 324 324 325 325 324 324 325 324 324 324 323 323 322 323 322 322 321 321 320 319 319 319 319 319 319 320
322 312 313 317 315 313 315 316 311 309 312 313 312 313 316 315 309 309 310 310 315 318 318 319 318 317 318 319 320 320 320 320 319 318 318 319 320 320 321 321 323 324 325 325 325 325 324 324 323 322 322 322 323 324 324 324 324 324 323 324 327 327 326 325 325 325 324 324 323 323 324 324 324 324 324 323 324 324 324 323 322 322 321 321 321 321 320 320 319 319 318 318 320 320 320 320 322
321 314 313 315 315 313 314 317 313 310 313 314 314 313 314 314 311 309 309 310 315 319 318 319 318 318 318 319 319 320 320 319 317 316 317 318 319 319 319 320 322 323 324 325 325 325 325 324 324 323 322 322 322 323 324 325 325 325 325 326 328 328 326 325 325 325 325 324 324 325 324 324 324 324 323 323 324 324 324 323 322 322 321 321 324 323 321 321 320 320 319 319 320 320 319 321 323
317 314 313 314 314 313 313 316 313 310 313 314 314 314 313 314 313 310 310 309 312 316 318 319 319 319 320 320 319 319 319 317 316 316 317 317 318 318 318 319 320 321 323 324 325 325 325 325 324 324 323 323 323 324 324 325 326 326 327 328 328 327 326 325 324 325 326 326 326 325 324 323 323 323 323 323 323 323 323 322 322 323 322 324 327 324 321 322 322 322 322 321 321 321 320 321 323
312 311 311 311 312 312 313 316 312 308 312 314 313 313 313 313 313 310 308 309 309 311 315 317 318 319 320 320 318 317 317 316 315 316 317 317 317 317 317 318 319 320 322 323 324 324 324 324 324 323 323 324 324 324 324 325 325 326 327 327 328 328 326 324 324 325 326 327 326 326 325 325 324 323 324 324 324 323 323 323 324 324 324 324 325 322 320 321 322 322 323 323 322 322 320 320 322
311 310 310 311 311 311 312 314 313 309 311 315 314 312 313 312 312 309 307 308 309 310 311 313 315 316 318 318 317 316 316 315 315 316 316 316 316 316 316 316 317 318 319 321 322 322 323 323 323 322 323 324 324 324 324 325 324 325 325 325 327 327 325 322 322 323 325 326 326 325 325 325 325 325 326 325 325 325 325 325 326 325 324 322 321 321 321 321 322 322 323 324 324 323 322 321 321
311 310 310 312 312 312 312 312 313 311 311 316 315 312 312 312 312 309 306 308 310 311 311 313 314 315 316 317 316 316 316 315 315 315 315 315 315 315 315 315 315 316 317 319 320 320 321 322 321 321 322 322 324 325 325 324 324 325 326 326 326 326 325 323 322 322 324 325 325 325 325 325 326 326 326 325 325 325 325 326 326 324 322 321 320 323 325 324 324 323 321 325 326 324 324 323 322
312 310 309 312 312 312 314 313 313 312 311 313 314 314 314 313 313 311 308 308 310 311 311 312 313 314 315 316 315 315 315 315 315 314 314 314 314 314 313 314 314 315 316 317 318 319 320 320 320 319 320 321 323 324 325 325 326 327 328 328 327 327 326 326 325 323 323 325 325 326 326 325 325 324 324 324 323 323 324 325 324 322 323 324 323 324 325 326 329 325 320 323 324 322 323 322 321
313 310 310 311 311 312 313 313 312 312 311 311 313 315 315 314 315 314 311 309 308 309 310 311 312 313 313 313 314 314 314 314 314 314 314 313 313 313 313 313 313 314 314 315 316 317 318 318 319 319 319 320 322 323 325 326 328 328 329 329 329 328 327 327 326 324 322 322 323 325 325 323 324 324 323 323 323 323 325 327 326 323 323 327 326 325 324 324 326 323 320 321 322 320 320 318 317
313 311 311 309 310 312 313 314 312 313 315 313 313 315 318 322 321 316 313 311 310 309 307 309 312 312 312 313 313 314 314 314 314 313 313 313 313 313 313 313 313 313 313 314 314 315 316 317 318 319 319 320 321 322 325 327 328 328 328 329 328 326 325 325 324 323 321 320 320 322 321 322 327 329 324 323 324 326 328 328 328 327 324 327 328 327 326 324 321 319 318 319 319 317 315 314 313
312 312 311 309 310 312 313 315 314 317 319 313 311 315 320 323 322 319 315 313 313 311 307 307 310 312 312 313 314 314 314 313 313 313 313 313 313 313 313 312 313 313 313 313 314 314 315 316 317 319 319 319 320 322 325 327 327 328 328 327 327 326 324 323 322 322 322 320 320 321 320 321 326 327 324 324 323 325 329 328 329 328 324 325 327 325 324 321 317 315 315 315 314 313 312 311 310
313 313 313 311 309 311 314 315 317 319 318 313 311 315 318 317 317 318 313 312 314 312 310 308 308 311 313 314 314 314 314 314 313 314 313 313 313 313 313 313 313 313 313 314 314 314 314 315 316 317 318 319 320 322 324 326 326 327 327 327 328 327 326 325 325 325 324 322 322 321 321 321 320 320 320 323 323 324 326 325 325 323 320 320 322 320 318 316 313 313 313 312 312 311 310 309 308
312 313 314 311 310 313 314 315 316 316 315 316 314 313 316 318 320 318 311 313 315 314 314 311 308 311 314 314 315 315 314 314 314 314 314 314 313 313 313 313 313 313 313 313 313 313 313 314 315 316 317 318 319 321 323 324 325 326 327 328 328 327 327 327 328 327 325 324 324 322 322 321 320 322 323 323 324 324 322 319 319 319 318 317 317 317 316 314 312 311 311 310 309 308 307 306 305
310 312 316 317 318 317 315 316 316 313 313 317 318 314 314 319 324 320 312 313 315 315 316 311 307 311 314 314 315 315 315 314 314 314 315 315 313 313 313 313 314 313 313 313 313 313 314 314 315 315 316 317 318 320 321 323 324 326 327 328 328 328 328 329 328 328 327 325 324 323 322 320 319 322 324 322 322 322 319 317 317 318 317 315 314 314 313 312 311 310 309 307 306 305 304 303 303
308 312 316 319 322 319 318 321 317 313 315 316 317 315 313 317 321 319 315 316 316 315 316 312 308 310 313 314 314 315 315 315 314 315 314 315 314 313 313 313 313 313 314 314 313 313 313 314 315 315 315 316 318 319 321 322 324 325 327 327 328 328 328 329 328 329 327 324 324 323 321 320 319 320 321 320 320 319 317 316 315 314 313 312 312 312 311 310 308 307 305 304 304 303 302 302 301
309 315 316 316 320 318 319 322 314 313 317 314 313 313 311 314 318 317 315 317 317 314 316 317 312 310 312 312 313 313 314 313 314 315 314 315 315 313 313 313 313 313 314 314 314 313 313 314 315 315 315 316 317 318 320 322 323 325 327 327 328 328 328 328 328 328 327 324 324 323 320 321 323 321 319 318 318 316 315 313 312 312 312 312 311 310 309 307 305 304 304 303 302 302 301 301 300
312 316 315 314 317 315 317 318 314 316 316 310 310 311 311 313 315 316 316 315 314 310 310 314 311 310 312 312 312 312 313 313 313 314 314 315 315 314 313 313 314 314 314 314 314 314 314 314 315 315 315 316 317 318 319 321 323 324 326 327 327 328 328 328 327 327 326 325 324 323 321 321 322 320 318 317 316 315 313 312 312 312 312 311 309 307 305 304 304 303 303 302 301 301 300 299 299
314 312 313 314 316 316 316 316 315 318 316 310 309 311 314 316 315 317 317 314 312 307 307 310 309 310 312 312 312 312 312 313 313 313 314 314 315 314 314 314 314 313 314 314 314 314 314 314 315 315 315 316 316 317 319 320 321 323 324 326 327 327 327 327 326 326 326 325 324 322 322 321 320 319 318 317 315 313 312 312 312 312 310 308 306 305 304 303 303 302 302 301 300 300 299 298 298
312 312 314 314 315 317 318 317 318 320 318 312 310 313 319 321 318 315 311 308 308 308 309 310 309 310 311 311 312 313 313 313 312 312 313 314 315 314 314 314 314 314 314 314 314 314 315 314 314 314 315 316 316 317 318 319 320 321 323 325 326 327 327 326 325 326 325 324 324 323 322 321 320 319 318 316 313 312 312 312 311 310 307 305 304 303 303 302 302 301 301 300 299 299 298 298 297
313 314 314 313 315 319 316 316 318 319 319 315 311 316 321 319 315 312 307 306 308 307 308 309 309 311 311 312 313 312 313 313 312 312 313 314 314 314 314 313 314 314 314 314 314 314 315 314 314 315 315 316 317 318 318 319 320 321 323 325 325 326 326 325 325 325 325 324 323 323 322 321 321 319 318 314 312 311 312 311 309 307 305 303 303 303 302 302 301 301 300 300 299 298 298 297 297
313 312 313 312 315 318 315 313 313 313 316 316 313 315 319 316 314 316 315 313 311 309 308 307 309 311 311 312 313 313 313 313 312 313 312 313 313 313 314 314 314 315 314 314 314 314 315 315 315 316 316 317 318 319 319 320 320 321 323 324 325 324 323 324 325 324 323 324 324 323 322 322 321 319 316 313 311 312 311 309 306 304 303 303 303 302 302 301 301 300 300 299 298 298 297 297 297
314 314 313 311 312 315 315 315 316 314 314 318 316 314 316 317 317 319 317 314 315 315 312 308 308 310 311 313 313 313 313 313 313 312 312 313 313 313 314 314 315 315 315 315 315 315 315 315 316 316 316 317 317 317 317 317 317 318 320 323 324 324 323 323 324 322 322 323 324 323 322 322 320 318 314 312 311 311 309 306 304 303 303 303 302 302 301 301 301 301 300 299 298 297 297 297 296
312 314 312 312 314 315 314 314 317 315 313 319 319 312 313 316 319 320 314 314 318 316 315 313 309 309 310 313 313 313 313 313 313 313 312 313 313 313 314 314 314 314 314 314 314 314 314 314 315 315 315 315 315 314 314 313 313 314 316 321 323 324 324 323 323 323 322 323 323 322 321 320 319 315 312 311 311 310 307 304 303 303 302 302 302 301 301 301 301 300 299 298 297 297 297 297 296
309 310 309 312 314 314 315 315 316 316 315 319 318 313 316 317 318 321 316 316 319 315 316 316 310 308 310 312 313 313 313 313 313 313 313 313 313 313 314 314 314 314 313 313 313 313 313 313 313 313 313 313 313 313 313 312 312 312 314 319 322 324 325 324 324 324 322 321 322 321 320 319 316 312 311 311 310 307 304 303 303 302 301 301 301 301 301 301 300 299 298 298 298 298 297 296 296
310 311 311 311 310 313 316 314 315 317 318 319 316 315 324 323 316 317 316 317 319 315 316 313 307 308 311 311 313 313 313 313 313 313 313 313 314 313 314 314 313 313 313 313 312 312 312 312 312 312 311 312 312 312 312 312 312 311 313 318 322 323 323 323 323 324 322 320 320 320 318 317 313 311 311 310 307 304 303 302 302 301 301 301 301 301 301 300 299 298 298 299 298 297 297 296 296
312 313 312 312 311 313 316 314 314 315 314 318 316 315 325 325 314 312 314 316 315 310 309 308 306 308 310 311 311 313 313 313 313 314 313 314 314 314 314 313 313 313 312 313 313 312 312 312 312 312 311 311 311 311 311 310 312 314 316 318 320 321 321 322 322 322 322 320 319 319 317 314 311 311 311 307 304 303 302 301 301 300 300 300 301 301 300 299 298 299 299 299 298 297 296 296 296
Wind_Speed
1 1 0 1 2 1 2 4 1 2 3 2 2 0 2 2 1 1 1 1 0 1 2 6 11 15 8 3 7 7 7 5 4 3 3 7 15 20 18 16 14 12 12 12 11 10 8 8 8 7 6 6 8 7 7 9 9 7 6 6 5 4 3 2 2 3 3 3 2 4 6 7 7 8 10 11 11 11 11 11 10 10 9 9 10 9 9 10 10 10 9 9 9 9 8 8 8
2 2 1 1 1 0 1 4 2 3 5 2 3 2 2 2 1 4 5 3 3 6 11 14 14 12 7 9 10 8 6 3 4 6 8 15 21 20 18 15 13 12 12 11 11 10 9 8 8 7 7 8 8 8 8 9 10 8 7 6 5 3 2 1 2 3 4 5 5 7 9 9 10 10 10 11 11 11 11 10 10 9 9 8 9 9 9 9 9 9 9 9 10 9 8 9 9
2 2 1 1 0 2 1 3 2 1 4 1 4 3 1 2 5 6 6 6 11 14 14 13 10 7 5 7 6 4 3 3 7 10 13 20 22 20 19 15 12 11 11 11 11 10 10 9 8 8 8 8 9 9 10 10 9 8 7 6 4 2 2 1 2 3 5 7 8 9 9 9 11 11 11 11 11 11 10 10 9 8 9 9 9 8 9 8 9 9 9 10 10 9 9 9 10
1 2 0 1 1 2 3 3 2 4 1 2 3 5 2 5 7 5 5 12 15 11 6 6 6 5 4 4 4 4 4 5 9 12 17 22 21 21 20 16 13 11 10 10 10 10 9 9 8 9 9 8 9 10 11 10 9 7 6 5 4 3 2 3 3 4 6 7 9 10 9 9 10 11 11 10 10 9 9 9 8 8 9 8 8 8 8 8 8 9 9 9 9 9 9 10 11
1 2 1 1 1 1 3 2 2 3 1 3 1 5 5 5 6 5 9 16 13 2 2 4 4 5 7 5 3 3 5 8 11 14 20 22 20 22 20 16 13 11 10 9 9 9 9 9 9 10 10 9 9 10 11 9 8 7 6 5 4 3 2 3 5 6 7 7 8 10 10 9 10 11 11 9 9 10 9 9 9 9 9 8 8 8 8 8 8 8 8 8 9 9 9 10 10
2 2 1 1 2 2 3 1 0 1 4 5 2 5 5 6 8 9 11 13 7 2 2 4 5 7 7 6 5 5 6 7 12 17 21 23 21 22 20 16 14 11 10 9 9 9 9 9 10 10 10 10 10 10 10 9 8 7 6 6 5 3 2 4 5 6 6 7 8 10 10 10 10 11 10 9 9 10 10 10 10 10 10 9 9 8 8 8 7 7 7 8 8 8 8 9 9
3 3 1 3 3 3 3 2 3 3 4 5 4 5 5 9 12 12 10 7 4 3 3 6 9 9 5 5 6 5 4 4 10 17 21 23 22 21 20 17 14 12 10 10 9 9 10 10 10 11 10 10 10 11 11 9 8 8 6 5 5 3 3 4 6 6 5 6 8 9 9 9 10 10 11 10 10 10 10 11 11 10 10 9 9 8 7 7 7 7 7 8 8 7 8 9 9
3 3 1 3 3 4 4 2 3 3 2 3 4 5 6 13 16 12 7 5 4 4 6 10 9 5 3 4 4 3 5 6 10 17 22 22 22 21 19 17 14 12 11 10 9 9 10 10 10 11 10 10 10 11 11 9 10 8 6 5 5 4 3 5 7 7 7 7 8 9 8 9 9 10 11 10 10 10 10 10 11 10 10 9 9 8 7 7 6 7 6 7 7 7 8 8 9
2 2 0 3 2 3 3 2 3 3 3 4 4 5 8 14 15 10 6 3 4 7 12 11 3 2 5 4 4 6 7 8 13 19 21 20 22 21 19 17 13 11 11 10 9 9 10 10 10 11 11 11 12 11 10 9 9 8 6 6 4 4 4 6 7 7 7 6 7 9 8 8 8 10 10 10 9 9 9 10 10 10 9 10 9 9 8 7 6 7 7 7 7 7 7 8 9
0 0 2 3 2 2 3 3 2 2 4 5 5 5 9 14 12 8 6 3 6 10 13 7 1 6 9 6 6 9 9 11 16 18 19 19 20 20 19 17 12 10 9 9 9 9 9 9 10 10 10 11 13 12 10 9 8 7 6 6 5 5 5 6 6 6 6 5 6 8 8 8 8 10 10 9 9 8 9 9 9 10 10 10 9 9 8 7 7 6 6 6 6 6 8 9 10
1 2 2 4 3 1 2 3 3 4 5 5 4 5 10 14 11 6 5 5 8 10 11 6 3 11 10 5 7 10 11 14 16 16 17 19 19 20 19 17 13 9 7 8 8 8 9 9 9 8 8 9 10 11 11 9 7 7 6 6 6 6 5 5 5 5 5 4 5 8 9 9 8 9 9 9 8 8 8 9 9 9 10 10 9 9 9 8 7 7 6 7 7 7 8 9 10
1 2 3 4 3 2 3 2 4 5 5 4 2 6 10 14 9 5 7 8 9 7 9 7 7 12 7 2 7 10 12 14 15 14 17 19 20 20 18 17 14 10 7 6 6 8 8 8 8 7 7 7 8 10 12 10 6 5 5 5 5 5 6 5 4 4 4 4 6 8 9 9 8 8 8 8 8 7 8 8 9 9 9 10 9 10 9 9 8 8 8 9 8 8 8 9 10
2 2 4 3 3 2 3 2 4 4 4 3 4 7 11 13 8 8 10 9 10 7 7 9 10 11 4 2 8 12 14 15 16 15 17 19 20 20 18 17 14 11 8 6 5 6 7 7 7 7 7 7 7 8 10 10 7 5 3 3 4 5 5 4 4 4 4 5 7 8 8 8 8 7 7 8 8 7 7 8 8 9 10 10 10 10 10 9 10 10 10 10 10 9 9 9 9
2 3 4 2 1 2 4 1 2 0 3 5 4 9 13 11 6 10 12 7 10 9 8 10 12 10 4 4 8 17 18 15 17 17 18 19 20 20 18 16 13 12 9 8 6 6 7 7 7 7 7 7 7 8 8 8 7 5 3 3 4 4 4 4 4 4 4 6 6 7 7 8 8 7 8 9 8 7 7 7 8 9 10 11 10 10 10 11 11 11 11 11 10 10 10 10 10
2 2 3 3 2 1 3 1 1 3 4 4 5 11 14 11 5 10 14 9 10 10 8 11 13 6 4 7 7 19 22 17 19 19 20 20 20 20 18 17 14 13 11 10 8 6 7 6 7 7 7 7 7 7 7 6 6 4 4 3 3 4 5 5 5 4 5 6 6 6 7 7 7 7 8 8 8 7 7 8 8 9 10 10 10 11 11 12 12 11 11 11 10 10 10 10 10
2 2 4 3 2 1 3 1 2 3 5 5 7 12 12 9 7 9 13 9 8 11 10 11 16 7 4 8 2 14 25 19 21 21 21 21 20 21 18 18 16 15 13 12 10 8 8 7 7 7 7 7 6 6 5 5 5 4 3 3 3 4 4 4 4 4 4 5 5 6 6 7 7 7 8 8 7 7 7 8 8 8 9 9 10 11 11 11 11 11 10 10 10 10 10 10 11
3 2 4 1 2 2 4 3 4 3 5 5 8 14 10 5 7 9 10 9 7 13 13 10 18 13 5 6 1 14 26 21 22 23 23 23 22 23 21 20 18 17 16 14 12 10 9 8 7 7 7 6 5 5 4 4 4 4 3 3 3 3 3 3 3 4 4 4 4 5 6 6 7 7 8 7 7 7 7 7 7 8 8 8 9 9 10 10 10 10 10 10 9 10 10 10 10
4 2 3 1 3 3 5 6 7 3 2 6 11 17 13 6 9 11 7 7 7 13 15 10 17 17 9 6 4 16 26 23 24 24 24 25 24 25 24 22 21 20 18 16 14 12 11 9 9 8 7 6 4 4 4 4 4 4 4 3 3 3 3 3 3 3 4 4 4 4 5 6 6 7 7 7 6 6 6 7 7 7 7 7 8 8 9 9 9 9 8 9 9 9 9 9 10
3 3 1 3 4 4 5 7 8 4 2 7 12 15 15 10 12 14 6 5 8 10 12 10 15 18 14 9 7 18 26 25 26 26 26 26 26 27 26 25 23 21 20 19 16 14 12 10 9 8 7 5 4 4 3 4 4 4 4 4 4 4 4 4 4 4 3 4 4 4 4 5 5 6 6 6 6 6 6 6 6 6 6 6 7 7 7 8 8 8 8 8 8 9 9 9 10
4 2 0 4 4 4 5 7 9 8 4 6 11 12 13 11 14 15 7 5 7 8 13 13 15 19 18 13 10 20 27 26 26 27 27 26 26 26 27 26 25 23 22 20 18 15 14 12 10 9 8 6 4 3 3 3 3 3 3 3 4 4 4 4 4 3 3 3 3 4 3 4 4 5 5 5 5 5 5 5 5 5 5 5 5 6 6 6 6 7 7 8 8 8 9 9 10
5 1 2 3 0 2 6 7 8 10 7 6 10 10 10 12 15 15 10 6 4 13 21 20 18 20 20 17 14 22 27 28 28 28 28 27 26 26 26 26 25 24 22 21 19 17 15 14 12 11 9 7 5 4 3 3 2 2 2 3 4 4 4 4 4 3 3 3 3 3 3 4 4 5 5 5 5 5 5 4 4 4 4 4 4 5 5 5 5 6 6 7 8 8 9 9 9
5 4 4 5 2 2 8 7 6 7 7 7 10 9 11 14 14 17 16 9 8 16 24 23 19 17 19 19 18 23 29 30 30 29 29 28 27 26 25 25 25 24 23 22 21 18 16 15 14 12 10 9 7 5 4 4 3 2 2 3 4 4 4 3 3 3 3 3 3 3 3 3 4 4 4 5 5 4 4 3 3 3 3 3 3 4 4 5 5 5 6 7 7 8 9 10 10
3 5 6 10 7 6 11 10 8 7 7 9 11 10 13 15 11 17 22 18 14 12 17 20 19 16 17 20 20 24 30 32 32 31 30 29 28 28 26 25 24 24 23 22 21 19 17 16 15 14 13 11 10 8 7 6 4 3 3 3 3 3 3 3 3 4 4 3 3 3 2 3 3 4 4 4 4 4 3 3 2 2 2 2 3 3 4 5 6 6 7 7 8 9 10 10 11
2 4 7 13 13 10 13 14 12 9 8 11 10 10 14 17 10 11 23 27 18 8 8 15 20 17 17 21 21 23 28 31 31 30 29 28 27 27 26 24 24 24 24 22 21 19 18 16 16 15 14 13 12 11 9 8 7 5 5 3 3 3 2 3 4 4 4 4 3 3 3 3 3 3 3 3 3 3 2 2 1 1 2 3 3 4 5 6 7 7 8 9 9 10 10 10 11
1 3 10 17 18 17 17 16 14 10 10 10 10 10 13 17 9 7 22 28 21 13 8 9 18 19 19 23 23 23 28 30 30 29 28 27 26 26 26 25 25 25 24 22 21 20 18 17 17 16 15 14 14 13 11 10 9 8 6 4 3 3 2 4 5 4 4 4 4 3 3 4 3 3 3 3 3 2 2 1 1 2 3 4 4 5 6 7 8 8 9 10 10 11 11 11 12
3 7 15 19 22 22 20 16 12 8 8 9 11 8 9 13 7 8 20 23 21 18 11 9 16 19 20 23 24 25 27 30 30 29 28 27 27 28 28 27 27 26 24 22 22 20 19 18 17 16 15 15 15 14 12 11 11 10 7 6 6 5 4 5 5 5 5 4 4 4 4 4 4 4 3 3 3 3 2 2 3 4 4 5 6 7 8 9 9 10 10 11 12 12 12 13 15
9 15 18 19 21 21 15 12 8 5 6 10 12 4 4 8 5 7 12 16 21 20 13 11 16 19 20 23 25 26 27 28 29 29 28 28 29 30 29 29 28 26 24 24 23 21 20 19 18 16 16 16 16 14 13 13 12 11 9 8 8 7 7 7 6 6 5 5 5 5 4 5 5 5 4 4 4 5 4 5 5 6 7 8 9 9 10 11 12 12 12 13 13 13 14 15 16
14 17 17 18 18 16 12 10 8 4 3 9 11 2 1 4 4 8 8 11 19 20 15 13 17 18 19 22 25 27 28 28 28 29 30 31 31 30 29 29 27 25 26 25 23 21 21 20 18 17 17 17 17 15 14 13 12 12 11 10 10 9 10 10 8 7 7 6 7 6 6 6 6 7 7 7 7 7 8 8 8 8 9 11 12 12 13 13 14 14 14 14 14 15 16 16 18
16 13 9 12 12 10 10 8 7 5 2 7 9 1 3 4 9 13 9 10 15 17 17 16 19 20 20 23 26 27 28 28 30 31 31 30 29 28 28 27 25 24 25 24 23 23 22 21 19 19 19 18 17 16 15 14 13 13 12 12 11 11 11 11 11 10 9 9 9 9 9 9 9 9 10 10 10 10 10 10 11 12 12 13 14 15 15 16 17 17 17 16 16 18 18 18 20
13 8 2 6 8 5 6 3 6 6 3 7 9 3 6 8 16 16 10 12 15 16 18 18 21 22 22 24 27 28 29 29 31 31 30 30 29 28 27 26 24 23 22 22 23 24 23 22 21 20 20 20 18 17 16 16 15 14 14 13 12 11 11 12 13 13 13 13 12 12 12 11 11 12 12 12 12 12 12 12 13 14 15 15 16 17 18 18 19 19 19 18 18 19 19 18 18
6 5 2 2 2 5 6 1 6 6 4 7 7 4 6 8 16 16 12 13 16 18 19 21 23 25 25 26 28 29 29 29 30 30 31 30 30 29 28 27 25 24 23 23 23 22 22 22 22 22 22 21 20 19 18 17 16 15 15 14 13 12 12 12 13 14 14 14 14 14 13 13 13 13 13 13 13 13 13 14 15 15 15 16 17 18 18 19 19 19 20 20 20 18 16 13 12
2 4 4 2 2 6 7 2 7 5 3 6 6 3 6 8 12 13 14 15 17 20 21 22 24 26 27 28 29 29 29 29 29 30 31 31 31 30 29 28 27 26 25 24 23 22 22 22 23 23 23 22 22 21 19 18 17 16 16 15 14 13 13 14 14 14 15 15 15 15 14 14 14 14 14 14 14 14 14 14 15 16 16 16 17 17 18 19 19 19 19 19 18 15 12 10 10
1 1 4 3 2 3 5 3 4 3 2 4 4 3 3 5 6 6 14 18 18 20 21 22 25 26 28 29 29 30 30 30 30 31 31 31 31 30 30 29 29 28 26 25 24 23 23 23 23 24 23 22 22 21 19 18 18 17 16 15 14 14 14 14 14 14 15 15 15 15 15 14 14 14 15 15 15 15 15 14 16 17 16 15 15 15 16 16 16 16 16 16 14 12 11 11 13
4 1 3 4 3 3 3 4 3 3 3 2 4 3 5 7 5 2 9 18 19 21 22 23 25 26 28 29 30 32 32 31 30 29 28 29 30 30 30 29 29 29 28 27 26 25 24 23 24 24 23 22 21 21 19 18 17 17 16 16 15 15 15 15 15 16 15 16 16 15 15 15 15 14 14 15 15 16 16 14 15 16 14 13 14 14 14 14 13 14 13 11 10 11 11 13 15
5 3 3 4 4 4 4 4 3 4 3 3 5 5 9 12 10 6 5 12 18 20 21 22 24 27 28 30 32 33 33 33 29 26 26 27 28 29 29 29 30 30 30 29 28 27 26 25 25 24 23 22 21 20 19 18 18 18 18 17 18 18 17 17 18 17 16 16 15 15 16 16 15 15 15 15 15 15 15 13 13 13 13 12 14 15 15 14 12 10 9 9 8 10 12 14 15
3 4 2 3 4 4 5 5 4 3 3 5 7 6 9 13 13 9 5 9 16 18 18 20 23 26 28 30 32 33 34 32 27 25 26 27 28 28 28 29 30 31 31 31 30 30 28 27 26 25 24 22 21 20 20 20 20 20 20 20 21 20 19 19 19 18 17 16 15 15 17 16 14 14 13 13 13 13 12 11 11 11 11 11 14 16 14 12 10 8 9 10 11 11 11 12 13
1 2 3 4 4 5 5 4 5 1 4 6 7 8 10 12 11 8 5 6 12 17 20 22 24 25 28 31 32 32 33 30 26 27 28 28 28 28 28 29 30 31 32 32 33 32 30 29 28 27 25 23 22 22 21 21 22 22 22 22 23 21 20 20 20 19 18 18 17 17 17 16 15 13 12 13 13 13 12 11 10 11 11 10 12 13 11 8 8 8 10 11 11 13 12 10 12
3 4 5 6 4 6 6 4 5 2 3 4 3 6 10 12 11 8 5 5 11 19 22 24 26 26 27 30 32 33 31 29 28 29 28 28 29 29 29 29 30 31 32 33 33 32 31 30 30 29 26 25 24 23 22 21 21 21 21 21 21 20 20 19 19 19 19 18 18 18 17 16 15 14 14 15 15 15 13 12 12 13 12 10 9 8 7 7 8 10 12 12 12 14 14 13 15
3 4 4 6 3 4 6 3 4 3 2 3 2 4 9 11 11 7 8 11 15 22 23 26 29 27 28 31 33 33 32 31 31 29 27 28 29 28 30 30 31 31 31 32 32 32 32 32 31 30 29 27 25 23 22 22 20 19 19 19 18 19 19 17 17 18 19 19 19 19 18 16 16 17 17 17 17 16 13 13 13 12 10 8 7 8 9 10 11 12 13 14 14 15 16 17 17
3 3 4 6 3 2 3 2 2 2 1 0 1 3 7 8 7 6 13 20 20 21 22 24 27 29 32 33 32 33 33 34 32 29 28 29 29 29 31 31 31 31 32 33 33 33 33 33 32 31 30 28 26 24 23 22 20 20 19 19 19 20 20 18 17 17 18 19 19 19 19 18 18 19 19 17 14 12 11 11 11 9 9 9 9 9 12 14 15 15 14 13 14 15 16 17 18
5 6 6 7 5 4 3 3 3 2 2 1 2 4 6 6 7 7 10 14 16 19 19 20 25 29 32 31 31 33 34 35 33 30 29 29 30 31 30 30 31 31 32 33 33 33 33 33 32 31 30 28 26 25 23 23 23 22 22 22 22 22 22 22 21 19 18 18 18 19 19 17 14 16 17 13 9 7 8 10 11 11 12 13 13 13 14 15 15 16 15 13 13 15 16 18 18
5 6 8 9 8 6 3 4 3 1 3 2 1 3 7 4 5 9 7 4 9 14 14 20 26 28 29 31 34 35 34 34 33 31 29 29 29 29 29 31 31 32 32 32 31 31 32 32 32 31 30 28 26 25 24 25 25 25 24 24 24 24 24 23 22 20 18 17 16 17 17 13 12 16 14 9 10 11 12 14 15 15 15 14 15 16 17 18 18 18 16 15 15 15 15 15 14
3 5 7 10 9 6 3 2 1 3 4 3 1 5 7 6 5 8 5 4 8 9 8 17 26 27 28 32 35 35 34 34 32 31 29 28 28 28 29 30 31 33 32 30 30 30 30 31 31 31 30 29 27 26 26 26 26 26 26 25 25 25 24 23 20 17 17 17 17 16 16 14 16 19 15 11 14 15 16 17 18 19 17 15 16 17 18 17 17 16 15 14 13 11 10 10 10
3 3 4 7 8 7 6 3 4 4 3 4 1 3 4 6 7 5 1 3 8 8 8 14 22 27 31 35 37 36 36 34 32 31 29 28 27 27 27 27 28 30 30 30 30 30 30 30 30 30 30 29 28 28 28 28 28 28 27 27 26 25 23 22 19 17 16 17 18 18 17 16 16 16 14 13 15 16 18 19 19 18 17 16 17 16 16 15 13 10 8 7 7 7 7 8 10
3 1 3 3 3 3 3 3 4 3 2 4 3 3 3 7 6 3 2 3 8 9 9 12 20 29 34 38 40 38 38 37 34 31 30 29 27 26 26 24 24 26 27 29 30 30 30 29 30 30 30 30 29 29 29 29 29 29 28 28 27 26 23 22 20 19 19 18 19 19 18 17 14 12 14 15 16 18 20 20 17 15 14 15 16 15 13 11 7 4 4 5 6 7 7 8 9
3 4 5 5 4 3 2 2 2 1 2 8 7 5 5 6 5 3 1 3 7 8 7 10 19 28 34 38 41 41 42 41 38 35 31 29 28 26 25 25 24 24 24 27 29 30 30 30 31 31 31 30 30 30 30 30 30 30 30 29 28 27 25 24 23 22 22 21 21 21 20 19 16 15 17 18 18 19 19 16 14 12 13 13 12 10 8 5 2 3 4 5 6 7 8 9 10
4 4 4 5 4 4 3 1 2 0 6 8 6 7 6 6 5 4 4 5 7 8 7 9 15 23 29 33 37 40 41 42 40 37 33 30 28 28 28 28 27 25 24 25 27 29 30 31 31 31 31 31 31 31 31 30 31 30 30 30 29 28 26 25 24 24 24 23 22 23 21 19 16 16 18 18 17 16 13 11 11 10 10 9 7 5 3 1 1 3 4 5 6 8 9 10 11
4 3 3 3 2 2 3 3 2 4 8 4 3 2 6 7 5 3 6 6 6 8 8 9 13 20 24 25 26 30 33 36 37 37 35 32 30 30 30 29 28 28 26 25 25 27 29 30 31 32 31 32 31 31 31 31 31 30 30 29 28 28 27 26 26 25 24 23 24 24 21 18 17 18 17 15 13 11 9 9 9 10 9 7 6 4 2 0 2 3 4 6 7 8 9 10 11
3 3 4 3 1 1 1 2 1 5 6 3 3 1 4 8 6 6 8 8 8 10 12 14 15 19 20 17 17 19 23 28 32 35 37 35 34 33 31 29 28 29 28 27 26 26 28 29 30 31 31 31 32 32 32 31 31 30 29 28 28 27 27 27 26 26 25 24 25 24 21 20 21 20 16 13 11 10 9 10 10 10 8 6 4 3 1 1 2 4 5 7 8 8 9 10 10
6 5 5 5 3 4 5 4 2 4 5 3 1 1 3 5 4 9 11 11 14 14 16 19 19 20 20 16 15 16 18 22 26 31 35 36 35 33 31 30 29 29 29 29 29 28 28 29 30 30 31 31 31 31 31 31 31 30 29 28 28 27 27 27 26 26 25 24 24 23 22 21 20 18 14 12 11 11 10 11 11 9 7 6 4 3 2 1 2 4 5 6 7 8 8 9 9
8 5 4 4 3 5 6 4 3 4 3 3 2 2 4 2 3 8 11 14 15 14 17 19 21 23 22 20 18 17 18 19 22 28 32 33 33 32 32 31 30 30 30 31 32 31 31 31 31 31 31 31 32 32 32 31 31 30 30 29 29 28 28 27 26 26 26 25 24 23 22 21 20 17 13 12 12 12 12 12 10 8 7 7 5 4 2 1 2 3 4 5 6 7 8 9 9
6 4 4 6 5 3 1 3 4 3 1 2 2 3 4 3 6 7 6 10 13 16 18 19 23 25 21 22 23 19 18 18 21 26 29 30 30 30 31 30 29 29 30 32 32 33 33 33 33 33 33 33 33 33 33 32 31 31 30 31 30 29 29 28 27 28 27 24 23 22 20 20 19 17 14 13 14 14 13 11 10 9 8 7 5 3 2 0 1 3 4 5 7 7 8 9 10
3 4 6 5 3 4 1 2 1 3 2 3 2 4 5 3 7 8 5 5 8 11 14 17 24 24 19 23 25 22 19 17 19 23 26 27 27 28 28 28 28 28 29 30 31 32 33 34 34 35 35 34 34 34 34 33 32 32 32 32 31 31 30 29 28 27 25 23 22 21 20 20 20 16 15 16 16 15 13 12 11 10 9 7 5 3 2 1 1 3 5 6 7 8 9 10 10
6 6 7 2 2 2 1 2 2 1 4 4 1 4 5 2 5 6 4 5 7 8 9 13 19 19 20 27 27 24 21 16 16 20 23 24 25 26 26 26 27 28 29 30 30 32 33 34 35 35 35 36 35 35 34 33 33 32 32 32 32 31 29 28 27 25 24 24 24 23 23 22 19 16 17 18 17 15 14 13 12 10 8 7 5 3 2 2 2 4 5 6 7 8 9 10 11
5 4 5 4 3 4 3 3 2 3 5 4 2 3 3 4 5 3 3 8 9 9 9 9 13 18 23 29 27 23 20 16 15 18 22 24 25 25 26 26 27 28 29 30 31 33 34 35 36 36 36 36 36 35 35 34 33 32 31 31 31 30 29 28 26 25 25 25 25 26 24 21 18 18 20 19 17 16 16 14 13 10 8 7 5 3 2 2 3 5 6 6 8 9 10 11 12
4 3 3 2 3 5 5 4 3 3 4 4 3 3 3 6 6 5 7 9 8 10 10 7 11 18 22 25 24 22 21 19 16 17 22 24 26 26 26 26 26 27 28 29 30 32 34 35 35 36 36 36 36 35 34 33 32 30 29 29 29 29 30 28 27 27 26 26 27 26 22 19 18 21 21 20 18 18 17 14 12 10 8 7 5 3 2 3 3 4 5 6 8 9 11 12 13
4 4 5 4 3 2 2 2 2 2 3 3 3 3 5 6 5 8 10 10 9 10 8 7 11 16 18 21 21 20 20 21 18 17 21 23 25 24 24 24 24 25 26 27 27 28 29 30 30 31 31 32 32 32 31 30 28 28 28 28 28 29 29 29 28 28 27 26 26 23 19 18 21 23 22 20 20 19 17 14 12 10 9 7 5 4 3 3 3 4 5 7 9 10 11 13 14
7 6 6 5 5 3 3 5 2 2 3 4 3 4 7 6 5 9 11 10 7 3 4 7 12 14 14 16 17 17 18 19 19 18 20 22 22 21 21 21 21 22 23 23 24 24 24 25 25 26 26 26 27 28 27 26 25 25 25 26 27 28 28 28 28 29 28 26 24 20 19 21 24 24 22 21 20 19 16 14 12 11 9 7 6 5 3 2 3 4 6 7 9 10 12 13 14
Wind_Direction
197 178 233 84 45 92 39 20 54 1 61 95 311 174 236 212 158 177 168 319 239 330 112 130 136 147 152 142 157 123 102 135 145 132 161 159 147 150 149 148 149 150 153 153 156 158 165 165 161 153 143 145 145 155 158 150 147 148 147 140 138 138 111 71 30 37 70 96 107 112 110 111 109 108 108 112 113 112 111 113 114 113 113 110 106 100 97 93 90 86 79 78 77 77 77 70 69
230 233 257 161 29 27 264 24 61 340 40 34 292 180 257 320 128 187 194 223 158 111 108 115 122 134 117 109 117 100 90 94 123 113 128 146 144 145 146 146 145 146 146 147 149 153 164 165 161 151 142 143 144 146 142 146 148 149 155 149 147 153 141 88 38 58 80 115 134 124 116 113 112 108 104 105 106 106 105 108 109 110 112 110 107 100 95 93 91 87 76 73 73 71 68 64 64
247 235 248 202 27 52 105 36 67 67 57 303 276 241 253 140 192 211 202 172 131 115 106 106 102 101 90 98 91 85 115 119 132 120 134 149 146 147 147 146 144 141 143 144 147 156 166 171 172 160 155 154 146 143 138 143 147 152 161 153 150 164 159 116 80 87 100 121 129 126 121 112 110 110 108 107 106 108 109 110 112 112 111 109 108 101 91 88 86 82 74 67 69 66 60 60 57
247 221 213 185 190 62 74 44 112 119 81 231 278 273 224 175 205 219 170 147 136 118 97 99 81 68 62 92 90 87 122 138 148 139 146 154 152 150 148 147 144 138 140 144 149 155 163 171 176 166 163 159 147 144 142 146 151 157 163 156 157 164 154 119 110 114 121 129 126 128 125 109 104 107 109 109 106 105 106 107 108 109 108 106 105 98 90 85 80 77 72 64 63 61 56 56 58
245 227 226 233 209 94 90 68 105 105 223 195 254 275 234 198 197 181 152 152 154 128 89 126 98 91 84 81 86 109 140 149 158 154 153 158 155 149 147 146 142 138 138 139 145 148 158 168 171 167 164 158 153 150 146 150 156 157 160 164 168 161 139 110 116 123 123 127 124 126 124 112 106 107 109 106 101 99 98 96 94 98 100 100 99 94 93 87 80 74 68 62 59 57 52 54 61
227 197 154 127 110 114 117 92 146 221 233 172 176 254 227 205 179 156 154 165 185 223 166 161 148 128 95 69 82 110 127 152 169 165 158 156 154 149 147 145 141 138 138 135 138 145 156 165 169 165 161 159 159 158 153 156 160 163 167 170 178 164 130 113 125 132 119 118 119 118 117 115 113 112 114 106 97 94 91 93 94 95 95 97 99 94 91 85 81 75 63 59 56 51 45 45 48
218 193 121 113 83 50 105 150 209 236 241 171 180 238 207 186 169 152 155 171 188 197 179 157 142 125 101 90 99 101 101 153 169 164 157 154 154 152 147 144 143 140 136 133 133 143 156 165 171 167 161 162 166 164 159 161 167 177 179 173 180 162 134 131 135 140 131 124 117 110 108 106 106 104 107 104 94 92 88 91 93 92 92 92 93 88 84 81 78 73 61 56 56 49 36 33 33
214 211 244 114 49 24 89 118 232 215 235 211 221 246 196 172 166 158 162 169 164 184 158 146 138 112 126 133 121 121 114 133 153 157 157 156 156 152 148 145 144 141 133 128 128 139 153 164 172 173 170 171 171 167 165 172 177 179 180 177 174 153 138 139 137 143 142 133 116 104 102 98 99 98 101 103 97 94 89 87 87 85 84 81 82 80 78 77 75 74 67 58 53 45 31 27 26
194 215 260 95 76 36 44 337 276 243 254 266 262 241 190 171 167 161 160 164 163 169 158 152 141 123 158 143 124 138 134 138 150 157 159 160 158 152 149 146 144 140 131 124 127 135 147 160 170 179 182 181 176 172 173 178 181 179 180 180 169 151 138 133 132 141 140 131 117 108 105 100 102 106 107 107 100 92 88 85 84 81 77 75 73 73 73 71 70 71 69 60 47 39 30 24 24
156 335 126 88 97 52 343 297 277 281 262 266 265 211 178 172 168 162 157 149 164 164 164 166 89 137 150 138 130 145 150 151 155 161 164 164 159 154 150 147 144 139 132 126 127 135 143 156 167 176 183 186 186 185 180 174 177 177 173 168 160 154 140 125 119 128 134 122 110 108 106 99 100 110 111 109 104 94 89 85 79 74 70 70 70 71 74 71 67 63 59 56 49 38 27 22 22
9 16 111 78 81 105 239 253 275 281 281 293 276 193 175 175 167 158 146 140 163 163 167 175 132 138 136 135 145 155 159 159 164 165 165 168 161 157 155 149 147 144 138 131 130 135 141 155 161 165 172 182 192 196 188 174 171 164 150 144 146 150 142 129 121 123 137 122 92 93 96 96 96 104 110 110 107 98 89 81 74 70 69 72 74 76 75 73 68 64 58 56 54 40 26 20 19
224 4 76 88 131 188 199 218 275 290 310 315 222 185 180 177 170 169 156 153 169 171 180 182 166 150 121 126 162 166 168 164 172 171 165 168 165 162 161 155 151 153 151 143 136 135 140 152 155 153 160 169 183 195 196 190 187 169 144 134 138 144 143 140 135 121 129 116 88 90 92 95 96 99 109 113 106 96 87 79 76 75 78 80 79 78 74 72 70 65 60 55 53 40 28 20 17
169 127 93 113 168 166 158 180 276 319 325 272 196 181 182 181 190 194 167 159 173 172 194 187 173 161 126 165 173 179 177 170 172 173 167 166 168 167 167 163 159 163 161 159 149 138 143 147 151 149 150 158 166 178 192 199 205 197 165 143 142 141 141 140 135 114 104 98 94 100 98 98 98 96 106 111 104 97 91 85 86 86 85 82 78 77 75 73 68 61 56 52 49 41 34 25 19
142 154 118 126 101 120 153 177 281 236 263 256 198 177 180 187 209 202 173 160 185 182 189 188 178 166 148 172 188 187 175 170 172 168 168 167 170 171 171 171 169 171 169 170 165 150 149 147 151 149 146 151 158 164 175 188 194 192 175 157 146 138 137 137 134 117 107 102 103 109 107 106 100 96 104 110 109 104 101 96 94 90 85 83 80 78 75 71 67 63 59 55 51 46 41 33 27
114 136 98 111 56 341 177 218 210 151 237 236 182 182 180 192 214 202 189 180 193 189 180 182 180 176 187 182 199 190 170 166 171 165 168 168 171 173 173 175 175 177 176 177 175 165 157 152 151 148 150 152 156 162 164 168 167 167 159 145 145 146 143 139 139 128 120 117 117 119 114 110 103 101 107 112 116 110 104 98 93 89 87 87 81 76 72 70 67 66 63 60 56 52 47 41 36
53 110 70 96 105 259 198 198 139 120 247 213 172 184 179 201 212 198 198 194 191 185 180 181 185 195 212 185 207 183 167 163 169 166 169 169 172 174 176 178 178 179 181 184 182 176 167 159 151 146 152 156 160 163 161 162 160 159 149 147 160 158 149 142 143 134 125 125 125 123 115 113 110 109 113 116 118 111 103 97 94 92 90 86 80 76 71 69 67 64 62 58 55 51 47 43 37
5 80 65 84 156 211 204 185 175 165 245 222 180 183 175 197 203 192 196 200 200 185 184 190 193 202 211 190 253 176 166 163 169 168 171 172 174 176 179 181 180 183 185 188 187 184 177 167 155 147 151 158 162 165 171 175 174 172 163 173 174 162 155 147 148 138 126 126 126 125 121 120 121 121 121 120 116 108 104 101 101 95 88 83 78 76 72 68 64 60 57 53 50 46 42 39 34
359 106 91 168 181 197 187 185 196 174 229 210 192 187 182 187 184 179 184 199 203 187 190 198 199 206 211 204 217 179 168 165 171 172 174 175 178 181 183 185 185 187 188 190 191 189 186 176 163 154 153 155 158 167 182 188 188 187 180 182 177 169 166 161 161 151 140 135 130 132 132 132 131 131 126 121 116 109 109 106 102 94 86 83 75 72 68 65 61 56 52 47 45 39 35 32 26
21 112 116 213 200 209 199 193 195 193 260 197 193 193 190 199 182 176 186 194 178 181 199 210 207 211 215 215 206 184 172 170 176 177 178 179 182 186 187 188 188 190 192 193 192 192 192 187 175 164 161 159 160 170 182 188 188 186 182 182 180 177 176 177 174 162 151 139 133 138 140 141 136 134 129 122 120 114 111 106 99 93 84 79 73 68 63 61 56 50 45 37 33 30 25 21 17
8 62 291 236 219 246 249 229 215 220 239 186 192 198 198 205 186 181 190 178 180 199 205 208 212 211 214 218 203 188 178 175 180 182 184 186 189 192 192 191 191 192 194 194 194 195 196 195 188 179 175 173 175 183 185 184 185 187 188 190 188 186 184 180 177 170 156 141 135 143 148 150 144 139 135 128 122 115 111 106 97 90 80 73 66 63 57 51 47 39 33 26 20 16 12 9 6
341 356 202 244 243 274 278 269 255 242 238 215 192 186 203 205 189 187 176 151 226 229 214 212 216 209 207 211 201 192 185 180 184 186 189 192 194 197 197 196 194 194 193 193 195 197 199 199 198 194 190 190 194 200 195 187 189 193 202 210 208 200 192 181 178 175 161 154 147 149 157 160 155 149 141 131 122 113 108 102 94 85 73 64 53 47 42 33 29 22 18 14 7 1 357 355 353
328 278 255 290 318 248 300 317 304 262 238 218 183 179 201 193 192 196 182 177 227 231 224 221 222 216 210 209 200 195 191 186 187 190 192 195 197 198 200 200 197 194 192 193 196 198 202 202 203 203 202 204 206 210 210 205 194 187 206 223 226 217 200 185 178 179 177 176 165 155 159 165 163 154 145 134 124 114 105 96 85 74 60 47 32 21 14 8 3 358 356 355 351 347 343 341 342
329 283 299 305 300 267 292 305 308 287 230 205 194 200 192 178 197 204 197 209 220 232 237 226 224 223 217 212 202 197 196 193 192 192 194 196 199 199 199 200 199 196 195 196 198 200 204 204 206 209 209 210 213 216 218 215 205 200 205 216 228 225 209 191 181 180 180 179 174 169 168 174 173 160 152 143 133 126 117 101 77 43 22 12 2 349 343 338 335 335 335 335 335 335 335 334 337
265 256 316 319 311 290 292 296 296 286 241 226 213 205 188 182 195 203 210 220 219 234 257 231 224 221 214 210 208 206 201 199 197 196 196 197 200 201 200 200 201 200 199 200 201 203 206 208 210 212 213 213 216 222 225 221 217 217 216 220 227 223 210 195 193 186 179 175 171 173 179 180 176 169 164 155 149 149 142 127 103 347 325 327 327 318 315 315 317 319 321 323 324 326 328 328 329
47 283 323 328 318 308 306 301 297 282 249 233 210 202 199 194 191 209 221 223 220 229 259 239 221 215 210 209 211 210 204 203 202 200 199 199 201 203 204 203 203 204 204 204 205 206 207 210 213 216 217 216 218 223 227 227 224 227 226 227 233 234 224 209 207 198 186 177 169 170 173 175 176 179 180 174 177 185 188 202 232 267 284 296 301 297 297 300 303 306 310 313 314 317 320 319 318
13 316 314 318 312 312 308 298 300 280 243 212 196 205 206 195 200 248 236 227 222 228 248 242 216 210 209 210 211 210 207 205 204 203 202 202 203 207 208 207 208 208 207 209 211 210 209 212 215 218 221 221 222 224 227 230 230 232 232 228 234 238 239 230 219 205 200 193 183 182 181 184 189 194 202 200 211 222 228 249 261 269 275 279 280 282 285 289 293 297 300 303 306 310 313 313 312
332 321 315 308 306 310 298 289 297 264 234 206 189 187 201 186 191 251 240 226 221 223 234 229 211 209 210 210 212 210 210 209 206 206 206 206 207 209 211 211 213 213 211 213 214 213 213 215 217 219 224 225 227 229 229 232 234 236 233 229 231 235 239 240 233 219 214 213 210 210 208 211 215 221 229 228 233 243 250 256 261 268 272 274 275 276 280 286 289 290 294 297 301 304 305 306 306
328 328 319 308 311 311 282 272 273 228 226 210 184 132 202 167 199 236 231 216 217 219 224 219 208 209 212 211 211 211 212 212 210 210 209 209 209 209 212 214 214 215 215 215 216 216 216 217 219 220 224 228 231 233 233 235 236 236 233 231 231 233 237 239 239 236 230 230 232 233 234 235 237 241 245 247 247 251 256 260 263 266 269 273 276 279 281 285 285 286 289 292 297 297 298 302 304
328 333 321 310 325 317 272 251 231 198 206 202 169 131 271 204 224 229 228 220 212 214 221 217 208 208 211 211 211 212 214 213 213 214 214 213 213 214 215 215 216 217 217 217 218 220 221 222 223 224 227 230 234 236 238 238 236 236 234 232 231 231 234 236 236 239 241 242 243 244 245 247 249 250 251 253 254 257 262 266 269 269 269 273 276 279 281 281 282 284 287 289 293 295 302 309 310
331 333 303 312 334 315 273 230 189 175 180 184 158 206 256 236 235 225 221 224 210 209 217 216 209 206 208 210 212 214 215 216 217 218 218 217 219 220 220 219 219 220 219 220 221 222 224 226 226 228 231 233 236 238 240 240 238 237 236 233 230 230 232 232 234 237 240 243 245 247 248 250 253 255 256 257 258 261 264 268 270 270 272 274 277 280 282 283 286 291 295 298 300 303 313 321 320
338 316 272 309 312 281 295 228 166 160 190 187 161 230 255 252 247 231 221 224 211 208 214 214 211 207 208 210 213 216 217 219 222 222 221 221 222 223 224 224 222 223 223 223 225 225 226 228 230 231 233 236 237 239 241 242 241 238 237 234 230 231 232 231 232 235 238 242 245 247 250 253 255 259 261 263 265 267 271 274 273 274 277 281 283 286 288 291 295 302 306 308 309 312 320 329 335
353 294 283 318 218 265 304 262 176 168 187 178 161 233 261 271 263 236 220 220 213 211 213 213 212 209 210 212 214 218 220 221 224 225 225 224 225 226 227 226 226 226 225 226 227 227 228 229 231 233 234 235 236 238 240 241 241 238 235 234 232 233 235 233 231 233 237 243 246 248 251 254 256 262 267 270 272 275 277 280 282 286 290 290 291 293 295 299 305 311 313 313 313 316 320 330 342
328 218 254 290 250 268 309 283 199 163 126 171 188 237 262 274 278 238 214 213 211 211 214 214 213 213 213 214 217 219 221 222 224 226 226 226 226 228 228 228 229 228 228 228 228 229 230 229 230 231 231 232 234 235 237 237 238 237 235 233 235 238 238 237 236 236 239 244 247 250 254 257 260 264 270 274 278 279 280 284 291 296 298 299 302 305 303 305 312 315 315 313 314 318 321 329 338
230 182 238 259 235 239 283 290 243 148 110 191 213 235 248 262 291 288 212 210 208 210 215 217 215 216 217 218 219 221 222 223 225 227 227 227 228 229 230 230 230 231 231 231 231 231 232 232 232 230 229 229 230 231 233 235 237 238 237 236 239 242 241 240 239 240 241 245 248 252 258 260 261 263 266 270 274 277 282 288 294 297 303 310 318 319 313 314 320 319 321 322 319 320 324 332 333
193 181 229 259 235 224 245 272 234 153 123 193 198 233 256 264 272 279 242 215 214 216 218 221 222 221 221 221 222 223 224 225 227 229 229 230 230 230 231 232 232 232 232 232 233 234 234 235 234 232 230 227 226 227 228 231 234 236 236 236 239 241 241 239 239 239 241 246 251 257 262 262 260 262 267 273 275 275 279 285 290 297 307 317 321 321 319 324 332 333 337 343 335 326 327 329 324
149 181 226 270 255 243 233 252 255 170 155 207 205 220 244 254 258 260 261 226 223 228 228 228 229 226 223 224 225 227 228 230 232 232 232 233 232 232 232 233 234 233 233 234 234 235 234 234 234 232 229 226 224 224 224 226 229 232 233 234 236 239 241 240 239 240 245 250 253 259 266 267 264 266 273 280 280 277 280 285 291 302 310 309 307 310 314 318 330 338 339 342 335 329 327 321 317
310 266 282 278 264 276 262 259 290 223 179 227 219 222 242 251 259 261 255 232 225 230 233 234 233 230 228 226 228 230 231 234 235 234 234 235 234 234 234 234 234 234 233 233 234 234 234 233 233 231 227 225 223 222 223 224 227 229 231 233 235 240 245 246 245 245 247 251 253 259 266 270 269 270 276 280 283 285 290 297 302 310 311 297 291 301 305 302 316 328 327 329 324 320 321 318 314
304 287 285 281 250 265 269 266 316 348 182 251 241 235 253 254 260 263 231 211 226 229 230 234 233 231 232 231 231 233 234 236 236 235 235 235 236 234 234 234 233 233 232 231 232 231 232 232 231 230 227 225 223 224 226 228 230 232 234 237 240 245 250 253 254 252 250 251 253 257 261 268 271 272 270 270 277 281 289 301 301 302 300 289 284 293 295 291 305 314 310 309 309 309 312 314 314
267 276 283 282 259 273 272 255 326 7 181 272 326 247 257 258 258 249 215 220 241 242 237 238 235 231 233 233 233 234 236 238 237 236 236 235 236 235 234 234 233 233 232 231 231 230 230 230 229 229 227 225 224 227 230 232 236 239 244 247 247 251 255 259 261 256 251 251 253 256 257 257 260 262 259 259 263 266 275 287 286 283 282 284 293 288 280 280 288 299 302 300 299 301 303 304 308
227 249 262 267 260 281 281 278 319 14 92 248 34 268 267 265 269 259 232 231 244 251 249 247 241 235 237 236 236 238 238 240 240 239 238 236 236 234 233 234 233 233 233 231 230 229 229 228 227 227 226 225 225 227 231 234 239 243 247 250 251 253 255 258 260 255 249 246 247 252 255 251 249 251 253 260 265 259 264 270 265 267 271 280 296 290 283 282 280 285 294 293 292 293 295 298 303
219 223 232 249 253 240 247 305 311 334 9 102 84 316 284 255 259 267 244 233 242 249 246 246 243 240 242 243 243 243 243 245 245 244 243 241 239 236 234 234 234 234 233 232 230 228 228 227 227 227 227 226 226 227 231 234 238 240 241 244 246 247 247 249 252 252 250 245 242 246 252 256 261 261 258 260 260 250 261 267 259 264 271 270 276 281 282 281 275 277 283 282 284 289 292 298 304
227 224 221 232 248 250 253 315 321 303 281 261 113 265 274 284 259 252 248 225 239 244 236 238 242 241 242 244 244 244 245 247 247 247 246 244 242 239 236 235 235 235 234 233 232 231 230 230 229 229 229 228 227 228 231 234 237 238 239 241 241 242 243 243 245 250 254 253 252 252 251 251 256 261 259 246 240 245 259 264 258 263 273 268 266 271 272 274 274 275 277 278 285 294 298 303 309
238 229 204 216 236 244 244 291 266 221 254 277 136 203 259 305 267 243 254 258 248 248 245 241 242 241 240 243 245 243 243 244 245 247 247 245 242 238 236 234 233 234 234 234 234 233 233 232 232 232 231 230 229 230 232 235 238 239 240 242 244 246 247 248 251 256 259 258 259 260 254 242 236 239 240 233 239 246 249 251 249 255 265 261 258 264 268 276 281 279 279 282 291 306 313 319 326
231 242 173 199 226 232 221 192 205 236 281 298 301 169 244 273 251 250 330 282 268 264 260 252 244 240 239 242 244 243 241 241 243 246 248 246 241 236 235 234 233 234 234 234 234 234 234 233 233 233 233 232 232 232 234 237 239 241 242 244 247 249 251 254 259 262 260 255 254 256 253 247 241 238 236 235 240 244 244 244 244 249 256 255 256 265 273 284 290 287 290 297 312 328 337 338 342
230 211 104 168 200 226 211 185 220 274 340 273 256 153 218 261 266 311 22 245 262 258 249 248 243 238 237 239 242 243 243 242 243 245 247 246 242 238 236 235 235 235 233 233 234 234 235 235 234 233 233 233 233 234 236 238 240 242 244 246 248 250 252 254 256 257 254 248 249 252 250 247 246 247 249 242 237 242 245 245 245 250 257 258 261 267 274 282 289 303 325 342 350 351 352 351 352
189 133 87 69 63 54 75 163 199 12 282 245 229 185 213 263 266 282 312 236 244 253 251 245 242 239 237 239 241 243 244 244 244 244 244 243 243 240 237 236 235 235 233 233 233 234 234 234 234 234 233 232 232 234 235 237 239 241 243 245 246 248 250 250 250 252 250 245 245 246 246 246 243 236 241 243 244 247 246 244 245 250 256 257 257 259 261 267 291 338 351 358 2 1 1 357 355
112 119 89 51 36 35 43 56 100 152 256 248 229 195 203 258 260 219 224 218 208 225 249 256 252 246 242 242 244 245 246 247 246 245 242 240 241 239 235 234 234 233 234 233 233 232 232 233 233 234 233 232 232 233 235 236 238 239 241 243 245 246 246 247 247 247 247 245 243 245 247 250 249 238 238 246 251 249 238 231 237 240 241 238 232 230 228 244 330 1 8 10 7 2 0 357 354
83 105 119 72 356 12 14 359 71 218 242 273 309 196 191 239 255 220 241 243 217 214 227 243 251 250 248 247 249 250 251 251 249 244 239 237 237 235 233 233 232 232 233 233 234 233 232 232 232 233 233 232 232 233 234 236 237 239 240 241 243 244 244 245 244 243 245 244 242 246 247 241 241 244 249 255 249 236 220 214 217 213 208 205 205 206 203 57 22 20 13 8 5 0 357 354 351
94 129 150 143 173 166 233 237 169 233 245 299 335 161 205 241 247 252 265 266 248 231 226 237 249 257 258 255 255 256 253 251 248 241 236 234 233 232 232 233 232 232 233 234 235 234 233 232 232 233 232 232 232 233 234 236 237 238 239 240 241 242 242 242 242 240 242 243 242 245 244 236 237 244 255 259 240 220 210 202 196 192 189 191 193 181 147 77 33 15 8 3 359 356 353 350 348
171 179 175 171 157 170 205 209 213 250 260 285 289 185 250 280 263 242 243 243 243 240 242 250 257 262 263 262 261 259 254 248 242 236 231 231 232 232 232 234 234 233 233 234 235 235 234 233 232 233 233 233 233 234 235 236 238 238 239 239 239 239 239 237 237 238 239 242 244 244 242 241 244 249 255 249 228 210 200 194 188 186 184 183 176 161 144 74 28 8 2 356 351 350 348 346 344
185 176 159 208 211 182 199 202 208 237 258 281 284 190 206 220 251 243 241 252 254 248 251 256 259 260 262 265 264 262 260 251 237 230 227 227 230 231 233 234 235 235 235 235 236 235 235 234 234 234 234 234 235 236 237 237 239 239 238 238 236 236 237 236 234 237 239 240 242 242 240 241 244 248 248 233 212 197 191 189 187 185 181 176 171 163 150 72 17 355 348 346 345 344 344 344 342
189 150 147 228 220 148 163 194 184 186 221 271 249 223 214 212 267 278 273 273 266 251 252 256 258 260 262 263 262 260 263 257 239 228 225 226 227 229 232 234 236 237 236 236 236 236 236 235 235 236 236 236 237 238 239 240 240 240 238 237 236 234 234 234 232 235 238 239 241 243 241 240 241 244 239 218 200 190 187 188 187 185 180 176 174 170 164 198 330 338 339 340 342 342 343 343 341
152 169 189 218 170 114 59 254 93 82 213 251 200 237 288 310 282 298 331 303 279 260 256 252 253 257 259 259 258 255 258 259 245 232 226 226 227 228 231 232 234 236 236 237 237 237 237 237 237 238 238 238 239 240 241 242 242 241 239 237 235 234 232 232 233 234 234 233 237 239 237 238 241 241 226 205 193 188 188 190 187 184 182 180 182 186 200 254 314 332 336 339 341 342 341 339 336
139 194 192 135 94 121 155 245 328 71 228 271 190 222 274 277 265 306 339 283 272 263 253 251 255 255 251 253 253 249 252 258 251 236 227 226 226 228 230 230 232 234 235 236 237 238 238 238 239 239 240 241 242 243 244 244 244 242 240 236 234 234 232 231 233 234 230 228 231 232 232 237 242 231 211 195 189 190 191 190 186 186 187 187 193 200 218 271 316 329 336 339 340 340 337 334 331
144 173 159 126 192 216 189 193 221 202 227 280 303 259 251 212 231 284 243 234 246 254 248 247 252 246 243 249 251 248 247 253 252 235 225 224 224 226 228 230 233 235 238 240 240 241 240 240 241 241 242 243 243 245 245 244 244 241 238 235 232 231 230 230 231 232 230 227 228 231 232 236 234 215 200 191 190 192 192 191 188 188 191 193 201 211 237 291 318 327 334 338 338 337 333 331 329
77 106 163 161 194 209 201 185 184 198 223 262 289 305 264 223 218 211 227 235 233 246 252 244 247 249 248 252 255 253 244 242 244 232 222 222 222 225 228 231 236 239 242 243 242 243 242 242 243 242 242 243 242 242 241 240 239 237 233 230 227 226 226 227 227 229 231 227 228 231 232 229 218 203 194 191 192 193 192 192 191 191 194 197 207 219 250 288 310 323 333 338 337 335 330 329 329
156 175 195 192 192 209 224 207 169 160 193 218 242 273 265 247 214 198 223 240 230 236 250 252 260 265 265 262 261 259 248 238 236 230 224 222 223 227 231 236 241 242 242 242 240 240 240 241 241 240 240 239 238 237 235 235 233 230 227 223 222 222 223 224 222 224 228 227 227 229 225 216 205 197 194 193 193 192 191 192 191 193 197 201 211 226 248 276 305 326 335 337 333 331 330 329 327
183 196 200 189 193 187 213 230 213 123 192 192 186 259 268 254 211 202 217 227 227 242 261 263 273 280 283 279 270 264 255 243 237 232 228 226 227 232 238 242 243 241 240 241 241 239 238 238 237 236 235 233 233 232 229 227 224 221 221 218 218 219 220 220 219 220 224 225 227 226 216 206 198 194 194 194 193 193 192 192 193 197 201 206 217 228 242 272 312 326 330 331 330 330 328 324 323